Overview Statistics Trail Chart Weather Telemetry Raw packets
 

This is the latest recevied weather packets stored in our database for station/object WA6OOO. If no packets are shown the sender has not sent any weather packets the latest 10 day(s).

<< 84 85 86 87 88 89 90 >>
Time Temp. Humidity Pressure Rain* Wind** Luminosity Snow
1788058591 21.11° C 85% 1013.6 hPa 0 mm - 0 W/m² -
1788058286 21.11° C 85% 1013.6 hPa 0 mm - 0 W/m² -
1788057981 21.11° C 84% 1013.2 hPa 0 mm - 0 W/m² -
1788057684 21.11° C 84% 1013.6 hPa 0 mm - 0 W/m² -
1788057378 21.11° C 84% 1013.4 hPa 0 mm - 1 W/m² -
1788057073 21.11° C 84% 1013.3 hPa 0 mm - 2 W/m² -
1788056768 21.11° C 84% 1013.2 hPa 0 mm - 3 W/m² -
1788056464 21.67° C 83% 1013.3 hPa 0 mm - 6 W/m² -
1788056163 21.67° C 83% 1013.4 hPa 0 mm - 8 W/m² -
1788055858 21.67° C 82% 1013.4 hPa 0 mm - 12 W/m² -
1788055557 21.67° C 82% 1013.4 hPa 0 mm - 14 W/m² -
1788055253 21.67° C 81% 1013.4 hPa 0 mm - 17 W/m² -
1788054952 22.22° C 81% 1013.5 hPa 0 mm - 19 W/m² -
1788054648 22.22° C 80% 1013.3 hPa 0 mm - 19 W/m² -
1788054344 22.78° C 80% 1013.6 hPa 0 mm - 17 W/m² -
1788054039 22.78° C 78% 1013.5 hPa 0 mm - 19 W/m² -
1788053735 23.33° C 77% 1013.4 hPa 0 mm - 23 W/m² -
1788053430 23.89° C 76% 1013.3 hPa 0 mm - 26 W/m² -
1788053130 24.44° C 74% 1013.6 hPa 0 mm - 34 W/m² -
1788052826 25° C 73% 1013.5 hPa 0 mm - 36 W/m² -
1788052526 25° C 71% 1013.5 hPa 0 mm - 78 W/m² -
1788052221 25° C 71% 1013.6 hPa 0 mm - 87 W/m² -
1788051916 25° C 71% 1013.4 hPa 0 mm - 94 W/m² -
1788051611 25.56° C 70% 1013.5 hPa 0 mm - 105 W/m² -
1788051309 25.56° C 70% 1013.5 hPa 0 mm - 116 W/m² -

* Rain latest hour (hover to see other rain measurements)
** Current wind speed in m/s (hover to see current wind gust speed)